Time,TemperatureF,DewpointF,PressureIn,WindDirection,WindDirectionDegrees,WindSpeedMPH,WindSpeedGustMPH,Humidity,HourlyPrecipIn,Conditions,Clouds,dailyrainin,SoftwareType,DateUTC
2013-08-22 00:01:00,70.9,69.7,30.29,WSW,255,0.0,0.0,96,0.00,CLR,,0.53,WeatherDisplay:10.37,2013-08-22 04:01:00,
2013-08-22 00:06:00,71.6,70.4,30.31,ESE,123,0.0,0.0,96,0.00,RA,,0.00,WeatherDisplay:10.37,2013-08-22 04:06:00,
2013-08-22 00:11:00,70.7,69.5,30.28,WSW,255,0.0,0.0,96,0.00,RA,,0.00,WeatherDisplay:10.37,2013-08-22 04:11:00,
2013-08-22 00:16:00,70.6,69.4,30.29,WSW,255,0.0,1.1,96,0.00,CLR,,0.00,WeatherDisplay:10.37,2013-08-22 04:16:00,
2013-08-22 00:21:00,70.6,69.7,30.28,WSW,255,0.0,0.0,97,0.00,FEW,,0.00,WeatherDisplay:10.37,2013-08-22 04:21:00,
2013-08-22 00:26:00,71.6,70.4,30.31,ESE,123,0.0,0.0,96,0.00,FEW,,0.00,WeatherDisplay:10.37,2013-08-22 04:26:00,
2013-08-22 00:31:00,71.6,70.4,30.31,ESE,123,0.0,0.0,96,0.00,FEW,,0.00,WeatherDisplay:10.37,2013-08-22 04:31:00,
2013-08-22 00:36:00,70.4,69.5,30.28,WSW,255,0.0,0.0,97,0.00,FEW,,0.00,WeatherDisplay:10.37,2013-08-22 04:36:00,
2013-08-22 00:41:00,70.3,69.4,30.28,WSW,255,0.0,1.1,97,0.00,FEW,,0.00,WeatherDisplay:10.37,2013-08-22 04:41:00,
2013-08-22 00:46:00,70.3,69.4,30.28,WSW,255,0.0,0.0,97,0.00,FEW,,0.00,WeatherDisplay:10.37,2013-08-22 04:46:00,
2013-08-22 00:51:00,70.3,69.4,30.28,WSW,255,0.0,0.0,97,0.00,FEW,,0.00,WeatherDisplay:10.37,2013-08-22 04:51:00,
2013-08-22 00:56:00,70.2,69.3,30.28,WSW,255,0.2,1.1,97,0.00,FEW,,0.00,WeatherDisplay:10.37,2013-08-22 04:56:00,
2013-08-22 01:01:00,70.1,69.2,30.28,WSW,255,0.0,0.0,97,0.00,FEW,,0.00,WeatherDisplay:10.37,2013-08-22 05:01:00,
2013-08-22 01:06:00,70.0,69.1,30.28,WSW,255,0.0,0.0,97,0.00,CLR,,0.00,WeatherDisplay:10.37,2013-08-22 05:06:00,
2013-08-22 01:11:00,70.2,69.3,30.28,WSW,255,0.0,0.0,97,0.00,CLR,,0.00,WeatherDisplay:10.37,2013-08-22 05:11:00,
2013-08-22 01:16:00,70.2,69.3,30.28,WSW,255,0.0,0.0,97,0.00,CLR,,0.00,WeatherDisplay:10.37,2013-08-22 05:16:00,
2013-08-22 01:21:00,69.9,69.0,30.27,WSW,255,0.0,0.0,97,0.00,CLR,,0.00,WeatherDisplay:10.37,2013-08-22 05:21:00,
2013-08-22 01:26:00,69.8,68.9,30.27,WSW,255,0.0,0.0,97,0.00,CLR,,0.00,WeatherDisplay:10.37,2013-08-22 05:26:00,
2013-08-22 01:31:00,69.7,68.8,30.28,WSW,255,0.0,0.0,97,0.00,CLR,,0.00,WeatherDisplay:10.37,2013-08-22 05:31:00,
2013-08-22 01:36:00,69.8,68.9,30.27,WSW,255,0.0,0.0,97,0.00,CLR,,0.00,WeatherDisplay:10.37,2013-08-22 05:36:00,
2013-08-22 01:41:00,69.6,68.7,30.28,WSW,255,0.0,0.0,97,0.00,CLR,,0.00,WeatherDisplay:10.37,2013-08-22 05:41:00,
2013-08-22 01:46:00,69.5,68.6,30.28,WSW,255,0.0,0.0,97,0.00,CLR,,0.00,WeatherDisplay:10.37,2013-08-22 05:46:00,
2013-08-22 01:51:00,69.6,68.7,30.28,WSW,255,0.0,0.0,97,0.00,CLR,,0.00,WeatherDisplay:10.37,2013-08-22 05:51:00,
2013-08-22 01:56:00,69.2,68.3,30.28,WSW,255,0.0,0.0,97,0.00,CLR,,0.00,WeatherDisplay:10.37,2013-08-22 05:56:00,
2013-08-22 02:01:00,69.2,68.3,30.28,WSW,255,0.0,0.0,97,0.00,CLR,,0.00,WeatherDisplay:10.37,2013-08-22 06:01:00,
2013-08-22 02:06:00,69.2,68.3,30.28,WSW,255,0.0,0.0,97,0.00,CLR,,0.00,WeatherDisplay:10.37,2013-08-22 06:06:00,
2013-08-22 02:11:00,69.0,68.1,30.28,WSW,255,0.0,0.0,97,0.00,CLR,,0.00,WeatherDisplay:10.37,2013-08-22 06:11:00,
2013-08-22 02:16:00,69.2,68.3,30.28,WSW,255,0.0,0.0,97,0.00,CLR,,0.00,WeatherDisplay:10.37,2013-08-22 06:16:00,
2013-08-22 02:21:00,69.2,68.3,30.28,WSW,255,0.0,0.0,97,0.00,CLR,,0.00,WeatherDisplay:10.37,2013-08-22 06:21:00,
2013-08-22 02:26:00,68.9,68.0,30.28,WSW,255,0.0,0.0,97,0.00,CLR,,0.00,WeatherDisplay:10.37,2013-08-22 06:26:00,
2013-08-22 02:31:00,68.8,67.9,30.28,WSW,255,0.0,0.0,97,0.00,CLR,,0.00,WeatherDisplay:10.37,2013-08-22 06:31:00,
2013-08-22 02:36:00,68.9,68.0,30.28,WSW,255,0.0,0.0,97,0.00,SCT,,0.00,WeatherDisplay:10.37,2013-08-22 06:36:00,
2013-08-22 02:41:00,68.9,68.0,30.28,WSW,255,0.0,0.0,97,0.00,SCT,,0.00,WeatherDisplay:10.37,2013-08-22 06:41:00,
2013-08-22 02:46:00,68.8,67.9,30.28,WSW,255,0.0,0.0,97,0.00,SCT,,0.00,WeatherDisplay:10.37,2013-08-22 06:46:00,
2013-08-22 02:51:00,68.9,68.0,30.28,WSW,255,0.0,0.0,97,0.00,SCT,,0.00,WeatherDisplay:10.37,2013-08-22 06:51:00,
2013-08-22 02:56:00,68.7,67.8,30.28,WSW,255,0.0,0.0,97,0.00,SCT,,0.00,WeatherDisplay:10.37,2013-08-22 06:56:00,
2013-08-22 03:01:00,68.7,67.8,30.28,WSW,255,0.0,0.0,97,0.00,SCT,,0.00,WeatherDisplay:10.37,2013-08-22 07:01:00,
2013-08-22 03:06:00,68.7,67.8,30.28,WSW,255,0.0,0.0,97,0.00,CLR,,0.00,WeatherDisplay:10.37,2013-08-22 07:06:00,
2013-08-22 03:11:00,68.6,67.7,30.28,WSW,255,0.0,0.0,97,0.00,CLR,,0.00,WeatherDisplay:10.37,2013-08-22 07:11:00,
2013-08-22 03:16:00,68.7,67.8,30.28,WSW,255,0.0,0.0,97,0.00,CLR,,0.00,WeatherDisplay:10.37,2013-08-22 07:16:00,
2013-08-22 03:21:00,68.7,67.8,30.28,WSW,255,0.0,0.0,97,0.00,CLR,,0.00,WeatherDisplay:10.37,2013-08-22 07:21:00,
2013-08-22 03:26:00,68.6,67.7,30.28,WSW,255,0.0,0.0,97,0.00,CLR,,0.00,WeatherDisplay:10.37,2013-08-22 07:26:00,
2013-08-22 03:31:00,68.7,67.8,30.28,WSW,255,0.0,0.0,97,0.00,CLR,,0.00,WeatherDisplay:10.37,2013-08-22 07:31:00,
2013-08-22 03:36:00,68.7,67.8,30.28,WSW,255,0.0,0.0,97,0.00,CLR,,0.00,WeatherDisplay:10.37,2013-08-22 07:36:00,
2013-08-22 03:41:00,68.5,67.6,30.27,WSW,255,0.0,0.0,97,0.00,CLR,,0.00,WeatherDisplay:10.37,2013-08-22 07:41:00,
2013-08-22 03:46:00,68.7,67.8,30.28,WSW,255,0.0,0.0,97,0.00,CLR,,0.00,WeatherDisplay:10.37,2013-08-22 07:46:00,
2013-08-22 03:51:00,68.4,67.5,30.27,WSW,255,0.0,0.0,97,0.00,CLR,,0.00,WeatherDisplay:10.37,2013-08-22 07:51:00,
2013-08-22 03:56:00,68.4,67.5,30.27,WSW,255,0.0,0.0,97,0.00,CLR,,0.00,WeatherDisplay:10.37,2013-08-22 07:56:00,
2013-08-22 04:01:00,68.7,67.8,30.28,WSW,255,0.0,0.0,97,0.00,CLR,,0.00,WeatherDisplay:10.37,2013-08-22 08:01:00,
2013-08-22 04:06:00,68.7,67.8,30.28,WSW,255,0.0,0.0,97,0.00,CLR,,0.00,WeatherDisplay:10.37,2013-08-22 08:06:00,
2013-08-22 04:11:00,68.4,67.5,30.27,WSW,255,0.0,0.0,97,0.00,CLR,,0.00,WeatherDisplay:10.37,2013-08-22 08:11:00,
2013-08-22 04:16:00,68.3,67.4,30.27,WSW,255,0.0,0.0,97,0.00,CLR,,0.00,WeatherDisplay:10.37,2013-08-22 08:16:00,
2013-08-22 04:21:00,68.7,67.8,30.28,WSW,255,0.0,0.0,97,0.00,CLR,,0.00,WeatherDisplay:10.37,2013-08-22 08:21:00,
2013-08-22 04:26:00,68.2,67.3,30.27,WSW,255,0.0,0.0,97,0.00,CLR,,0.00,WeatherDisplay:10.37,2013-08-22 08:26:00,
2013-08-22 04:31:00,68.7,67.8,30.28,WSW,255,0.0,0.0,97,0.00,CLR,,0.00,WeatherDisplay:10.37,2013-08-22 08:31:00,
2013-08-22 04:36:00,68.7,67.8,30.28,WSW,255,0.0,0.0,97,0.00,CLR,,0.00,WeatherDisplay:10.37,2013-08-22 08:36:00,
2013-08-22 04:41:00,67.9,67.0,30.26,WSW,255,0.0,0.0,97,0.00,CLR,,0.00,WeatherDisplay:10.37,2013-08-22 08:41:00,
2013-08-22 04:46:00,67.9,67.0,30.27,WSW,255,0.0,0.0,97,0.00,CLR,,0.00,WeatherDisplay:10.37,2013-08-22 08:46:00,
2013-08-22 04:51:00,67.9,67.0,30.27,WSW,255,0.0,0.0,97,0.00,CLR,,0.00,WeatherDisplay:10.37,2013-08-22 08:51:00,
2013-08-22 04:56:00,68.1,67.2,30.26,WSW,255,0.0,0.0,97,0.00,CLR,,0.00,WeatherDisplay:10.37,2013-08-22 08:56:00,
2013-08-22 05:01:00,67.9,67.0,30.27,WSW,255,0.0,0.0,97,0.00,CLR,,0.00,WeatherDisplay:10.37,2013-08-22 09:01:00,
2013-08-22 05:06:00,67.9,67.0,30.27,WSW,255,0.0,0.0,97,0.00,CLR,,0.00,WeatherDisplay:10.37,2013-08-22 09:06:00,
2013-08-22 05:11:00,67.9,67.0,30.26,WSW,255,0.0,0.0,97,0.00,CLR,,0.00,WeatherDisplay:10.37,2013-08-22 09:11:00,
2013-08-22 05:16:00,67.8,66.9,30.26,WSW,255,0.0,0.0,97,0.00,CLR,,0.00,WeatherDisplay:10.37,2013-08-22 09:16:00,
2013-08-22 05:21:00,67.9,67.0,30.27,WSW,255,0.0,0.0,97,0.00,SCT,,0.00,WeatherDisplay:10.37,2013-08-22 09:21:00,
2013-08-22 05:26:00,67.9,67.0,30.27,WSW,255,0.0,0.0,97,0.00,SCT,,0.00,WeatherDisplay:10.37,2013-08-22 09:26:00,
2013-08-22 05:31:00,67.8,67.2,30.26,WSW,255,0.0,0.0,98,0.00,SCT,,0.00,WeatherDisplay:10.37,2013-08-22 09:31:00,
2013-08-22 05:36:00,67.7,66.8,30.26,WSW,255,0.0,0.0,97,0.00,FEW,,0.00,WeatherDisplay:10.37,2013-08-22 09:36:00,
2013-08-22 05:41:00,67.7,66.8,30.26,WSW,255,0.0,0.0,97,0.00,FEW,,0.00,WeatherDisplay:10.37,2013-08-22 09:41:00,
2013-08-22 05:46:00,67.5,66.6,30.26,WSW,255,0.0,0.0,97,0.00,FEW,,0.00,WeatherDisplay:10.37,2013-08-22 09:46:00,
2013-08-22 05:52:00,67.5,66.6,30.26,WSW,255,0.0,0.0,97,0.00,FEW,,0.00,WeatherDisplay:10.37,2013-08-22 09:52:00,
2013-08-22 05:57:00,67.4,66.5,30.26,WSW,255,0.0,0.0,97,0.00,FEW,,0.00,WeatherDisplay:10.37,2013-08-22 09:57:00,
2013-08-22 06:02:00,67.7,66.8,30.26,WSW,255,0.0,0.0,97,0.00,FEW,,0.00,WeatherDisplay:10.37,2013-08-22 10:02:00,
2013-08-22 06:07:00,67.7,66.8,30.26,WSW,255,0.0,0.0,97,0.00,FEW,,0.00,WeatherDisplay:10.37,2013-08-22 10:07:00,
2013-08-22 06:12:00,67.7,66.8,30.26,WSW,255,0.0,0.0,97,0.00,FEW,,0.00,WeatherDisplay:10.37,2013-08-22 10:12:00,
2013-08-22 06:17:00,67.3,66.7,30.26,WSW,255,0.0,0.0,98,0.00,FEW,,0.00,WeatherDisplay:10.37,2013-08-22 10:17:00,
2013-08-22 06:22:00,67.2,66.6,30.26,WSW,255,0.0,0.0,98,0.00,FEW,,0.00,WeatherDisplay:10.37,2013-08-22 10:22:00,
2013-08-22 06:27:00,67.2,66.6,30.26,WSW,255,0.0,0.0,98,0.00,FEW,,0.00,WeatherDisplay:10.37,2013-08-22 10:27:00,
2013-08-22 06:32:00,67.1,66.5,30.26,WSW,255,0.0,0.0,98,0.00,FEW,,0.00,WeatherDisplay:10.37,2013-08-22 10:32:00,
2013-08-22 06:37:00,67.2,66.6,30.26,WSW,255,0.0,0.0,98,0.00,FEW,,0.00,WeatherDisplay:10.37,2013-08-22 10:37:00,
2013-08-22 06:42:00,67.1,66.2,30.26,WSW,255,0.0,0.0,97,0.00,FEW,,0.00,WeatherDisplay:10.37,2013-08-22 10:42:00,
2013-08-22 06:47:00,67.1,66.5,30.26,WSW,255,0.0,0.0,98,0.00,FEW,,0.00,WeatherDisplay:10.37,2013-08-22 10:47:00,
2013-08-22 08:27:00,71.8,71.2,30.29,SW,229,0.5,2.3,98,0.00,CLR,,0.00,WeatherDisplay:10.37,2013-08-22 12:27:00,
2013-08-22 08:32:00,70.4,69.8,30.29,WSW,238,1.0,1.1,98,0.00,CLR,,0.00,WeatherDisplay:10.37,2013-08-22 12:32:00,
2013-08-22 08:37:00,72.8,72.2,30.29,SW,221,0.1,1.1,98,0.00,CLR,,0.00,WeatherDisplay:10.37,2013-08-22 12:37:00,
2013-08-22 08:42:00,73.2,72.3,30.29,SSW,200,0.7,2.3,97,0.00,CLR,,0.00,WeatherDisplay:10.37,2013-08-22 12:42:00,
2013-08-22 08:47:00,73.6,72.7,30.29,WSW,254,0.2,2.3,97,0.00,CLR,,0.00,WeatherDisplay:10.37,2013-08-22 12:47:00,
2013-08-22 08:52:00,74.2,73.0,30.29,SW,233,0.0,0.0,96,0.00,CLR,,0.00,WeatherDisplay:10.37,2013-08-22 12:52:00,
2013-08-22 08:57:00,73.4,72.5,30.29,SW,216,0.9,0.0,97,0.00,CLR,,0.00,WeatherDisplay:10.37,2013-08-22 12:57:00,
2013-08-22 09:00:00,75.1,73.6,30.29,WSW,244,0.2,1.1,95,0.00,CLR,,0.00,WeatherDisplay:10.37,2013-08-22 13:00:00,
2013-08-22 09:05:00,75.0,73.5,30.29,North,355,0.2,0.0,95,0.00,CLR,,0.00,WeatherDisplay:10.37,2013-08-22 13:05:00,
2013-08-22 09:10:00,76.4,74.2,30.28,WSW,243,2.1,3.5,93,0.00,SCT,,0.00,WeatherDisplay:10.37,2013-08-22 13:10:00,
2013-08-22 09:15:00,75.0,73.5,30.29,North,355,0.2,0.0,95,0.00,SCT,,0.00,WeatherDisplay:10.37,2013-08-22 13:15:00,
2013-08-22 09:20:00,77.3,74.5,30.28,SW,224,1.0,3.5,91,0.00,SCT,,0.00,WeatherDisplay:10.37,2013-08-22 13:20:00,
2013-08-22 09:25:00,77.7,74.2,30.28,WSW,247,4.5,6.0,89,0.00,BKN,,0.00,WeatherDisplay:10.37,2013-08-22 13:25:00,
2013-08-22 09:30:00,75.0,73.5,30.29,North,355,0.2,0.0,95,0.00,BKN,,0.00,WeatherDisplay:10.37,2013-08-22 13:30:00,
2013-08-22 09:35:00,78.4,74.9,30.28,SW,231,3.1,6.0,89,0.00,BKN,,0.00,WeatherDisplay:10.37,2013-08-22 13:35:00,
2013-08-22 09:40:00,78.8,74.6,30.28,SW,221,1.2,4.0,87,0.00,BKN,,0.00,WeatherDisplay:10.37,2013-08-22 13:40:00,
2013-08-22 09:45:00,75.0,73.5,30.29,North,355,0.2,0.0,95,0.00,BKN,,0.00,WeatherDisplay:10.37,2013-08-22 13:45:00,
2013-08-22 09:50:00,75.0,73.5,30.29,North,355,0.2,0.0,95,0.00,BKN,,0.00,WeatherDisplay:10.37,2013-08-22 13:50:00,
2013-08-22 09:55:00,80.2,74.6,30.28,SW,231,3.3,4.6,83,0.00,SCT,,0.00,WeatherDisplay:10.37,2013-08-22 13:55:00,
2013-08-22 10:00:00,75.0,73.5,30.29,North,355,0.2,0.0,95,0.00,SCT,,0.00,WeatherDisplay:10.37,2013-08-22 14:00:00,
2013-08-22 10:05:00,75.0,73.5,30.29,North,355,0.2,0.0,95,0.00,SCT,,0.00,WeatherDisplay:10.37,2013-08-22 14:05:00,
2013-08-22 10:10:00,81.9,75.5,30.28,WSW,237,1.1,3.5,81,0.00,SCT,,0.00,WeatherDisplay:10.37,2013-08-22 14:10:00,
2013-08-22 10:15:00,81.8,75.0,30.28,WSW,241,4.1,8.1,80,0.00,SCT,,0.00,WeatherDisplay:10.37,2013-08-22 14:15:00,
2013-08-22 10:20:00,75.0,73.5,30.29,North,355,0.2,0.0,95,0.00,SCT,,0.00,WeatherDisplay:10.37,2013-08-22 14:20:00,
2013-08-22 10:25:00,82.0,75.2,30.28,SW,225,1.8,3.5,80,0.00,FEW,,0.00,WeatherDisplay:10.37,2013-08-22 14:25:00,
2013-08-22 10:30:00,82.2,75.0,30.28,SW,235,3.7,5.8,79,0.00,FEW,,0.00,WeatherDisplay:10.37,2013-08-22 14:30:00,
2013-08-22 10:35:00,75.0,73.5,30.29,North,355,0.2,0.0,95,0.00,FEW,,0.00,WeatherDisplay:10.37,2013-08-22 14:35:00,
2013-08-22 10:40:00,83.1,76.3,30.27,WNW,302,2.3,5.8,80,0.00,FEW,,0.00,WeatherDisplay:10.37,2013-08-22 14:40:00,
2013-08-22 10:45:00,75.0,73.5,30.29,North,355,0.2,0.0,95,0.00,FEW,,0.00,WeatherDisplay:10.37,2013-08-22 14:45:00,
2013-08-22 10:50:00,83.3,74.9,30.28,WSW,240,3.5,10.4,76,0.00,FEW,,0.00,WeatherDisplay:10.37,2013-08-22 14:50:00,
2013-08-22 10:55:00,75.0,73.5,30.29,North,355,0.2,0.0,95,0.00,FEW,,0.00,WeatherDisplay:10.37,2013-08-22 14:55:00,
2013-08-22 11:00:00,75.0,73.5,30.29,North,355,0.2,0.0,95,0.00,FEW,,0.00,WeatherDisplay:10.37,2013-08-22 15:00:00,
2013-08-22 11:05:00,83.1,75.1,30.28,SW,229,2.2,4.6,77,0.00,SCT,,0.00,WeatherDisplay:10.37,2013-08-22 15:05:00,
2013-08-22 11:10:00,83.0,75.0,30.28,SW,227,2.3,2.3,77,0.00,SCT,,0.00,WeatherDisplay:10.37,2013-08-22 15:10:00,
2013-08-22 11:15:00,83.0,75.0,30.28,SW,227,2.3,2.3,77,0.00,SCT,,0.00,WeatherDisplay:10.37,2013-08-22 15:15:00,
2013-08-22 11:20:00,82.7,74.8,30.27,WSW,240,5.2,5.8,77,0.00,SCT,,0.00,WeatherDisplay:10.37,2013-08-22 15:20:00,
2013-08-22 11:25:00,83.0,75.0,30.28,SW,227,2.3,2.3,77,0.00,SCT,,0.00,WeatherDisplay:10.37,2013-08-22 15:25:00,
2013-08-22 11:30:00,83.0,74.6,30.27,West,269,5.6,8.1,76,0.00,SCT,,0.00,WeatherDisplay:10.37,2013-08-22 15:30:00,
2013-08-22 11:35:00,83.0,75.0,30.28,SW,227,2.3,2.3,77,0.00,BKN,,0.00,WeatherDisplay:10.37,2013-08-22 15:35:00,
2013-08-22 11:40:00,83.4,74.6,30.27,SW,215,3.4,5.0,75,0.00,BKN,,0.00,WeatherDisplay:10.37,2013-08-22 15:40:00,
2013-08-22 11:45:00,83.0,75.0,30.28,SW,227,2.3,2.3,77,0.00,BKN,,0.00,WeatherDisplay:10.37,2013-08-22 15:45:00,
2013-08-22 11:50:00,83.0,75.0,30.28,SW,227,2.3,2.3,77,0.00,SCT,,0.00,WeatherDisplay:10.37,2013-08-22 15:50:00,
2013-08-22 11:55:00,84.2,75.0,30.27,NW,322,2.6,3.5,74,0.00,SCT,,0.00,WeatherDisplay:10.37,2013-08-22 15:55:00,
2013-08-22 12:00:00,84.9,74.9,30.26,West,266,4.5,6.0,72,0.00,SCT,,0.00,WeatherDisplay:10.37,2013-08-22 16:00:00,
2013-08-22 12:05:00,83.0,75.0,30.28,SW,227,2.3,2.3,77,0.00,SCT,,0.00,WeatherDisplay:10.37,2013-08-22 16:05:00,
2013-08-22 12:10:00,85.3,75.7,30.26,WSW,248,1.9,4.6,73,0.00,FEW,,0.00,WeatherDisplay:10.37,2013-08-22 16:10:00,
2013-08-22 12:15:00,83.0,75.0,30.28,SW,227,2.3,2.3,77,0.00,FEW,,0.00,WeatherDisplay:10.37,2013-08-22 16:15:00,
2013-08-22 12:20:00,85.6,75.5,30.26,WSW,237,2.4,3.5,72,0.00,FEW,,0.00,WeatherDisplay:10.37,2013-08-22 16:20:00,
2013-08-22 12:25:00,85.5,75.4,30.26,WSW,246,2.9,4.6,72,0.00,FEW,,0.00,WeatherDisplay:10.37,2013-08-22 16:25:00,
2013-08-22 12:30:00,85.7,76.0,30.26,WSW,242,1.8,3.5,73,0.00,FEW,,0.00,WeatherDisplay:10.37,2013-08-22 16:30:00,
2013-08-22 12:35:00,85.7,76.0,30.26,WSW,242,1.8,3.5,73,0.00,FEW,,0.00,WeatherDisplay:10.37,2013-08-22 16:35:00,
2013-08-22 12:40:00,85.5,75.4,30.25,ESE,113,0.6,1.1,72,0.00,FEW,,0.00,WeatherDisplay:10.37,2013-08-22 16:40:00,
2013-08-22 12:45:00,85.7,75.6,30.25,WNW,285,3.0,3.5,72,0.00,FEW,,0.00,WeatherDisplay:10.37,2013-08-22 16:45:00,
2013-08-22 12:50:00,85.7,76.0,30.26,WSW,242,1.8,3.5,73,0.00,FEW,,0.00,WeatherDisplay:10.37,2013-08-22 16:50:00,
2013-08-22 12:55:00,85.6,75.1,30.25,WSW,237,4.5,6.9,71,0.00,FEW,,0.00,WeatherDisplay:10.37,2013-08-22 16:55:00,
2013-08-22 13:00:00,85.3,75.2,30.25,SW,220,3.0,3.5,72,0.00,FEW,,0.00,WeatherDisplay:10.37,2013-08-22 17:00:00,
2013-08-22 13:05:00,85.7,74.4,30.25,SW,225,2.8,3.5,69,0.00,FEW,,0.00,WeatherDisplay:10.37,2013-08-22 17:05:00,
2013-08-22 13:10:00,86.1,75.2,30.25,WSW,243,4.7,9.2,70,0.00,FEW,,0.00,WeatherDisplay:10.37,2013-08-22 17:10:00,
2013-08-22 13:15:00,86.3,75.8,30.24,South,188,1.7,4.6,71,0.00,FEW,,0.00,WeatherDisplay:10.37,2013-08-22 17:15:00,
2013-08-22 13:20:00,86.1,75.6,30.25,WSW,241,3.0,3.0,71,0.00,FEW,,0.00,WeatherDisplay:10.37,2013-08-22 17:20:00,
2013-08-22 13:25:00,86.2,74.4,30.24,SW,222,2.0,2.3,68,0.00,FEW,,0.00,WeatherDisplay:10.37,2013-08-22 17:25:00,
2013-08-22 13:30:00,86.1,74.3,30.24,West,260,1.0,4.0,68,0.00,FEW,,0.00,WeatherDisplay:10.37,2013-08-22 17:30:00,
2013-08-22 13:35:00,86.1,74.3,30.24,WSW,238,2.6,3.5,68,0.00,FEW,,0.00,WeatherDisplay:10.37,2013-08-22 17:35:00,
2013-08-22 13:40:00,86.8,73.2,30.24,WSW,244,3.3,4.6,64,0.00,FEW,,0.00,WeatherDisplay:10.37,2013-08-22 17:40:00,
2013-08-22 13:45:00,86.8,75.4,30.24,West,276,2.2,5.0,69,0.00,FEW,,0.00,WeatherDisplay:10.37,2013-08-22 17:45:00,
2013-08-22 13:50:00,86.1,74.3,30.24,WSW,238,2.6,3.5,68,0.00,FEW,,0.00,WeatherDisplay:10.37,2013-08-22 17:50:00,
2013-08-22 13:55:00,87.0,73.3,30.23,West,265,2.9,3.5,64,0.00,FEW,,0.00,WeatherDisplay:10.37,2013-08-22 17:55:00,
2013-08-22 14:00:00,86.1,74.3,30.24,WSW,238,2.6,3.5,68,0.00,FEW,,0.00,WeatherDisplay:10.37,2013-08-22 18:00:00,
2013-08-22 14:05:00,86.1,74.3,30.24,WSW,238,2.6,3.5,68,0.00,SCT,,0.00,WeatherDisplay:10.37,2013-08-22 18:05:00,
2013-08-22 14:10:00,87.9,74.2,30.23,WSW,250,4.1,8.1,64,0.00,SCT,,0.00,WeatherDisplay:10.37,2013-08-22 18:10:00,
2013-08-22 14:15:00,87.8,72.2,30.23,SSE,165,3.1,6.9,60,0.00,SCT,,0.00,WeatherDisplay:10.37,2013-08-22 18:15:00,
2013-08-22 14:20:00,88.0,74.3,30.22,West,276,2.8,3.5,64,0.00,SCT,,0.00,WeatherDisplay:10.37,2013-08-22 18:20:00,
2013-08-22 14:25:00,88.8,74.1,30.22,West,271,4.2,4.2,62,0.00,SCT,,0.00,WeatherDisplay:10.37,2013-08-22 18:25:00,
2013-08-22 14:30:00,88.0,74.3,30.22,West,276,2.8,3.5,64,0.00,SCT,,0.00,WeatherDisplay:10.37,2013-08-22 18:30:00,
2013-08-22 14:35:00,88.0,74.3,30.22,West,276,2.8,3.5,64,0.00,SCT,,0.00,WeatherDisplay:10.37,2013-08-22 18:35:00,
2013-08-22 14:40:00,89.0,75.2,30.21,WSW,244,0.4,1.1,64,0.00,SCT,,0.00,WeatherDisplay:10.37,2013-08-22 18:40:00,
2013-08-22 14:45:00,89.2,74.0,30.21,WSW,247,3.4,5.8,61,0.00,SCT,,0.00,WeatherDisplay:10.37,2013-08-22 18:45:00,
2013-08-22 14:50:00,88.0,74.3,30.22,West,276,2.8,3.5,64,0.00,SCT,,0.00,WeatherDisplay:10.37,2013-08-22 18:50:00,
2013-08-22 14:55:00,89.6,74.9,30.20,NNW,333,0.8,8.0,62,0.00,SCT,,0.00,WeatherDisplay:10.37,2013-08-22 18:55:00,
2013-08-22 15:00:00,89.6,74.4,30.20,NW,318,2.4,4.6,61,0.00,SCT,,0.00,WeatherDisplay:10.37,2013-08-22 19:00:00,
2013-08-22 15:05:00,88.0,74.3,30.22,West,276,2.8,3.5,64,0.00,SCT,,0.00,WeatherDisplay:10.37,2013-08-22 19:05:00,
2013-08-22 15:10:00,88.4,75.1,30.19,NW,306,1.2,3.5,65,0.00,SCT,,0.00,WeatherDisplay:10.37,2013-08-22 19:10:00,
2013-08-22 15:15:00,88.0,74.3,30.22,West,276,2.8,3.5,64,0.00,SCT,,0.00,WeatherDisplay:10.37,2013-08-22 19:15:00,
2013-08-22 15:20:00,89.2,73.0,30.18,NE,35,0.8,4.6,59,0.00,SCT,,0.00,WeatherDisplay:10.37,2013-08-22 19:20:00,
2013-08-22 15:25:00,89.9,73.7,30.18,West,265,1.8,4.6,59,0.00,SCT,,0.00,WeatherDisplay:10.37,2013-08-22 19:25:00,
2013-08-22 15:30:00,88.0,74.3,30.22,West,276,2.8,3.5,64,0.00,SCT,,0.00,WeatherDisplay:10.37,2013-08-22 19:30:00,
2013-08-22 15:35:00,89.9,74.6,30.18,WNW,303,2.7,4.0,61,0.00,SCT,,0.00,WeatherDisplay:10.37,2013-08-22 19:35:00,
2013-08-22 15:40:00,89.9,74.6,30.17,NNW,345,4.0,8.1,61,0.00,SCT,,0.00,WeatherDisplay:10.37,2013-08-22 19:40:00,
2013-08-22 15:45:00,90.1,73.8,30.17,NNW,344,3.4,4.6,59,0.00,SCT,,0.00,WeatherDisplay:10.37,2013-08-22 19:45:00,
2013-08-22 15:50:00,90.0,76.2,30.17,NW,311,0.0,1.1,64,0.00,SCT,,0.00,WeatherDisplay:10.37,2013-08-22 19:50:00,
2013-08-22 15:55:00,90.0,74.2,30.18,WNW,300,2.9,3.5,60,0.00,SCT,,0.00,WeatherDisplay:10.37,2013-08-22 19:55:00,
2013-08-22 16:00:00,89.6,73.4,30.17,WSW,248,2.2,5.0,59,0.00,SCT,,0.00,WeatherDisplay:10.37,2013-08-22 20:00:00,
2013-08-22 16:05:00,90.0,74.2,30.18,WNW,300,2.9,3.5,60,0.00,SCT,,0.00,WeatherDisplay:10.37,2013-08-22 20:05:00,
2013-08-22 16:10:00,89.6,74.4,30.17,WSW,254,0.6,2.3,61,0.00,CLR,,0.00,WeatherDisplay:10.37,2013-08-22 20:10:00,
2013-08-22 16:15:00,89.9,76.1,30.17,West,271,1.5,3.0,64,0.00,CLR,,0.00,WeatherDisplay:10.37,2013-08-22 20:15:00,
2013-08-22 16:20:00,90.2,74.4,30.17,NW,317,3.1,4.0,60,0.00,CLR,,0.00,WeatherDisplay:10.37,2013-08-22 20:20:00,
2013-08-22 16:25:00,89.6,75.3,30.17,WSW,254,1.0,0.0,63,0.00,CLR,,0.00,WeatherDisplay:10.37,2013-08-22 20:25:00,
2013-08-22 16:30:00,89.6,75.3,30.17,WSW,254,1.0,0.0,63,0.00,CLR,,0.00,WeatherDisplay:10.37,2013-08-22 20:30:00,
2013-08-22 16:35:00,90.5,75.7,30.17,WSW,253,2.7,4.6,62,0.00,CLR,,0.00,WeatherDisplay:10.37,2013-08-22 20:35:00,
2013-08-22 16:53:00,91.5,75.1,30.17,West,271,1.8,4.0,59,0.00,CLR,,0.00,WeatherDisplay:10.37,2013-08-22 20:53:00,
2013-08-22 16:58:00,91.3,73.4,30.17,WSW,239,2.2,3.5,56,0.00,CLR,,0.00,WeatherDisplay:10.37,2013-08-22 20:58:00,
2013-08-22 17:03:00,91.1,73.7,30.16,West,272,0.6,2.3,57,0.00,CLR,,0.00,WeatherDisplay:10.37,2013-08-22 21:03:00,
2013-08-22 17:08:00,91.0,73.7,30.16,WNW,285,2.2,3.5,57,0.00,CLR,,0.00,WeatherDisplay:10.37,2013-08-22 21:08:00,
2013-08-22 17:13:00,90.6,73.8,30.16,NW,306,2.1,4.6,58,0.00,CLR,,0.00,WeatherDisplay:10.37,2013-08-22 21:13:00,
2013-08-22 17:18:00,91.2,73.3,30.16,WSW,242,2.4,3.5,56,0.00,CLR,,0.00,WeatherDisplay:10.37,2013-08-22 21:18:00,
2013-08-22 17:23:00,90.8,76.0,30.16,SW,227,0.0,1.1,62,0.00,CLR,,0.00,WeatherDisplay:10.37,2013-08-22 21:23:00,
2013-08-22 17:28:00,90.8,75.5,30.15,SW,217,0.6,2.3,61,0.00,CLR,,0.00,WeatherDisplay:10.37,2013-08-22 21:28:00,
2013-08-22 17:33:00,90.7,74.4,30.15,West,263,0.2,1.1,59,0.00,CLR,,0.00,WeatherDisplay:10.37,2013-08-22 21:33:00,
2013-08-22 17:38:00,90.8,76.0,30.16,SW,227,0.0,1.1,62,0.00,CLR,,0.00,WeatherDisplay:10.37,2013-08-22 21:38:00,
2013-08-22 17:43:00,90.8,76.0,30.16,SW,227,0.0,1.1,62,0.00,CLR,,0.00,WeatherDisplay:10.37,2013-08-22 21:43:00,
2013-08-22 17:48:00,90.4,76.1,30.15,WNW,285,2.3,7.0,63,0.00,CLR,,0.00,WeatherDisplay:10.37,2013-08-22 21:48:00,
2013-08-22 17:53:00,90.8,76.0,30.16,SW,227,0.0,1.1,62,0.00,CLR,,0.00,WeatherDisplay:10.37,2013-08-22 21:53:00,
2013-08-22 17:58:00,90.0,77.1,30.15,West,260,1.0,2.0,66,0.00,CLR,,0.00,WeatherDisplay:10.37,2013-08-22 21:58:00,
2013-08-22 18:03:00,89.7,77.3,30.15,West,271,0.6,2.0,67,0.00,CLR,,0.00,WeatherDisplay:10.37,2013-08-22 22:03:00,
2013-08-22 18:08:00,89.4,77.4,30.15,West,276,0.0,0.0,68,0.00,CLR,,0.00,WeatherDisplay:10.37,2013-08-22 22:08:00,
2013-08-22 18:13:00,89.4,77.4,30.15,West,276,0.0,0.0,68,0.00,CLR,,0.00,WeatherDisplay:10.37,2013-08-22 22:13:00,
2013-08-22 18:18:00,88.4,77.8,30.16,West,275,0.2,1.1,71,0.00,CLR,,0.00,WeatherDisplay:10.37,2013-08-22 22:18:00,
2013-08-22 18:23:00,89.4,77.4,30.15,West,276,0.0,0.0,68,0.00,CLR,,0.00,WeatherDisplay:10.37,2013-08-22 22:23:00,
2013-08-22 18:28:00,88.0,78.7,30.16,WSW,258,0.1,1.1,74,0.00,CLR,,0.00,WeatherDisplay:10.37,2013-08-22 22:28:00,
2013-08-22 18:33:00,89.4,77.4,30.15,West,276,0.0,0.0,68,0.00,CLR,,0.00,WeatherDisplay:10.37,2013-08-22 22:33:00,
2013-08-22 18:38:00,86.8,77.5,30.16,WSW,258,0.0,0.0,74,0.00,CLR,,0.00,WeatherDisplay:10.37,2013-08-22 22:38:00,
2013-08-22 18:43:00,87.5,78.2,30.16,WSW,258,0.1,0.0,74,0.00,CLR,,0.00,WeatherDisplay:10.37,2013-08-22 22:43:00,
2013-08-22 18:48:00,85.9,78.2,30.16,WSW,258,0.0,0.0,78,0.00,CLR,,0.00,WeatherDisplay:10.37,2013-08-22 22:48:00,
2013-08-22 18:53:00,87.5,78.2,30.16,WSW,258,0.1,0.0,74,0.00,CLR,,0.00,WeatherDisplay:10.37,2013-08-22 22:53:00,
2013-08-22 18:58:00,85.3,78.4,30.15,WSW,258,0.0,0.0,80,0.00,CLR,,0.00,WeatherDisplay:10.37,2013-08-22 22:58:00,
2013-08-22 19:03:00,87.5,78.2,30.16,WSW,258,0.1,0.0,74,0.00,CLR,,0.00,WeatherDisplay:10.37,2013-08-22 23:03:00,
2013-08-22 19:08:00,85.0,78.9,30.15,WSW,258,0.0,0.0,82,0.00,CLR,,0.00,WeatherDisplay:10.37,2013-08-22 23:08:00,
2013-08-22 19:13:00,87.5,78.2,30.16,WSW,258,0.1,0.0,74,0.00,CLR,,0.00,WeatherDisplay:10.37,2013-08-22 23:13:00,
2013-08-22 19:18:00,84.4,78.7,30.15,WSW,258,0.0,0.0,83,0.00,CLR,,0.00,WeatherDisplay:10.37,2013-08-22 23:18:00,
2013-08-22 19:23:00,84.1,78.4,30.14,WSW,258,0.0,0.0,83,0.00,CLR,,0.00,WeatherDisplay:10.37,2013-08-22 23:23:00,
2013-08-22 19:28:00,83.7,78.3,30.14,WSW,258,0.0,0.0,84,0.00,CLR,,0.00,WeatherDisplay:10.37,2013-08-22 23:28:00,
2013-08-22 19:33:00,83.9,78.5,30.15,WSW,258,0.0,0.0,84,0.00,CLR,,0.00,WeatherDisplay:10.37,2013-08-22 23:33:00,
2013-08-22 19:38:00,83.1,78.5,30.15,WSW,258,0.0,0.0,86,0.00,CLR,,0.00,WeatherDisplay:10.37,2013-08-22 23:38:00,
2013-08-22 19:43:00,82.4,78.1,30.15,WSW,258,0.0,0.0,87,0.00,CLR,,0.00,WeatherDisplay:10.37,2013-08-22 23:43:00,
2013-08-22 19:48:00,82.7,78.4,30.15,WSW,258,0.0,0.0,87,0.00,CLR,,0.00,WeatherDisplay:10.37,2013-08-22 23:48:00,
2013-08-22 19:53:00,82.7,78.4,30.15,WSW,258,0.0,0.0,87,0.00,CLR,,0.00,WeatherDisplay:10.37,2013-08-22 23:53:00,
2013-08-22 19:58:00,81.0,77.4,30.15,WSW,258,0.0,0.0,89,0.00,CLR,,0.00,WeatherDisplay:10.37,2013-08-22 23:58:00,
2013-08-22 20:03:00,82.7,78.4,30.15,WSW,258,0.0,0.0,87,0.00,CLR,,0.00,WeatherDisplay:10.37,2013-08-23 00:03:00,
2013-08-22 20:08:00,80.2,77.0,30.15,WSW,258,0.0,0.0,90,0.00,CLR,,0.00,WeatherDisplay:10.37,2013-08-23 00:08:00,
2013-08-22 20:13:00,82.7,78.4,30.15,WSW,258,0.0,0.0,87,0.00,CLR,,0.00,WeatherDisplay:10.37,2013-08-23 00:13:00,
2013-08-22 20:18:00,79.5,76.6,30.16,WSW,258,0.0,0.0,91,0.00,CLR,,0.00,WeatherDisplay:10.37,2013-08-23 00:18:00,
2013-08-22 20:23:00,79.1,76.2,30.16,WSW,258,0.0,0.0,91,0.00,CLR,,0.00,WeatherDisplay:10.37,2013-08-23 00:23:00,
2013-08-22 20:28:00,78.8,75.9,30.17,WSW,258,0.0,0.0,91,0.00,CLR,,0.00,WeatherDisplay:10.37,2013-08-23 00:28:00,
2013-08-22 20:33:00,78.5,76.0,30.16,WSW,258,0.0,0.0,92,0.00,CLR,,0.00,WeatherDisplay:10.37,2013-08-23 00:33:00,
2013-08-22 20:38:00,78.2,75.7,30.16,WSW,258,0.0,0.0,92,0.00,CLR,,0.00,WeatherDisplay:10.37,2013-08-23 00:38:00,
2013-08-22 20:43:00,77.9,75.4,30.16,WSW,258,0.0,0.0,92,0.00,CLR,,0.00,WeatherDisplay:10.37,2013-08-23 00:43:00,
2013-08-22 20:48:00,77.7,75.2,30.17,WSW,258,0.0,0.0,92,0.00,CLR,,0.00,WeatherDisplay:10.37,2013-08-23 00:48:00,
2013-08-22 20:53:00,77.5,75.3,30.17,WSW,258,0.0,0.0,93,0.00,CLR,,0.00,WeatherDisplay:10.37,2013-08-23 00:53:00,
2013-08-22 20:58:00,77.3,75.1,30.17,WSW,258,0.0,0.0,93,0.00,CLR,,0.00,WeatherDisplay:10.37,2013-08-23 00:58:00,
2013-08-22 21:03:00,77.1,74.9,30.17,WSW,258,0.0,0.0,93,0.00,CLR,,0.00,WeatherDisplay:10.37,2013-08-23 01:03:00,
2013-08-22 21:08:00,76.9,74.7,30.18,SW,227,0.4,1.1,93,0.00,CLR,,0.00,WeatherDisplay:10.37,2013-08-23 01:08:00,
2013-08-22 21:13:00,76.7,74.5,30.18,SW,227,0.0,0.0,93,0.00,CLR,,0.00,WeatherDisplay:10.37,2013-08-23 01:13:00,
2013-08-22 21:18:00,76.7,75.2,30.19,SE,128,3.3,5.8,95,0.00,CLR,,0.00,WeatherDisplay:10.37,2013-08-23 01:18:00,
2013-08-22 21:23:00,76.8,74.6,30.18,SSE,157,2.5,3.5,93,0.00,CLR,,0.00,WeatherDisplay:10.37,2013-08-23 01:23:00,
2013-08-22 21:28:00,77.1,74.9,30.18,SSE,156,1.8,3.5,93,0.00,CLR,,0.00,WeatherDisplay:10.37,2013-08-23 01:28:00,
2013-08-22 21:33:00,77.3,74.8,30.19,SSE,158,1.6,2.3,92,0.00,CLR,,0.00,WeatherDisplay:10.37,2013-08-23 01:33:00,
2013-08-22 21:38:00,77.5,75.0,30.19,SSE,153,1.4,3.5,92,0.00,CLR,,0.00,WeatherDisplay:10.37,2013-08-23 01:38:00,
2013-08-22 21:43:00,77.6,75.1,30.19,SSW,194,1.6,3.5,92,0.00,CLR,,0.00,WeatherDisplay:10.37,2013-08-23 01:43:00,
2013-08-22 21:48:00,77.6,75.1,30.19,SSW,203,2.8,4.0,92,0.00,CLR,,0.00,WeatherDisplay:10.37,2013-08-23 01:48:00,
2013-08-22 21:53:00,77.7,75.2,30.19,SSW,208,1.4,2.3,92,0.00,CLR,,0.00,WeatherDisplay:10.37,2013-08-23 01:53:00,
2013-08-22 21:58:00,77.7,75.2,30.19,SSW,196,3.5,4.6,92,0.00,CLR,,0.00,WeatherDisplay:10.37,2013-08-23 01:58:00,
2013-08-22 22:03:00,77.7,75.2,30.20,South,190,2.3,5.8,92,0.00,CLR,,0.00,WeatherDisplay:10.37,2013-08-23 02:03:00,
2013-08-22 22:08:00,77.7,74.9,30.20,SSE,160,1.1,3.5,91,0.00,CLR,,0.00,WeatherDisplay:10.37,2013-08-23 02:08:00,
2013-08-22 22:13:00,77.6,74.8,30.20,SSE,167,1.6,3.5,91,0.00,CLR,,0.00,WeatherDisplay:10.37,2013-08-23 02:13:00,
2013-08-22 22:18:00,77.5,74.7,30.20,South,176,0.9,2.3,91,0.00,CLR,,0.00,WeatherDisplay:10.37,2013-08-23 02:18:00,
2013-08-22 22:23:00,77.4,74.9,30.20,South,186,1.6,3.5,92,0.00,CLR,,0.00,WeatherDisplay:10.37,2013-08-23 02:23:00,
2013-08-22 22:28:00,77.2,74.7,30.20,SSW,204,0.3,1.1,92,0.00,CLR,,0.00,WeatherDisplay:10.37,2013-08-23 02:28:00,
2013-08-22 22:33:00,77.0,74.5,30.20,South,177,0.6,1.1,92,0.00,CLR,,0.00,WeatherDisplay:10.37,2013-08-23 02:33:00,
2013-08-22 22:38:00,76.8,74.3,30.20,South,174,0.2,1.1,92,0.00,CLR,,0.00,WeatherDisplay:10.37,2013-08-23 02:38:00,
2013-08-22 22:43:00,76.6,74.1,30.20,SSE,160,0.8,2.3,92,0.00,CLR,,0.00,WeatherDisplay:10.37,2013-08-23 02:43:00,
2013-08-22 22:48:00,76.4,73.9,30.20,SSE,155,0.5,1.1,92,0.00,CLR,,0.00,WeatherDisplay:10.37,2013-08-23 02:48:00,
2013-08-22 22:53:00,76.2,73.7,30.20,SSW,202,0.1,1.1,92,0.00,CLR,,0.00,WeatherDisplay:10.37,2013-08-23 02:53:00,
2013-08-22 22:58:00,76.1,73.9,30.20,SSW,202,0.0,0.0,93,0.00,CLR,,0.00,WeatherDisplay:10.37,2013-08-23 02:58:00,
2013-08-22 23:03:00,75.9,73.7,30.20,SSW,202,0.0,1.0,93,0.00,CLR,,0.00,WeatherDisplay:10.37,2013-08-23 03:03:00,
2013-08-22 23:08:00,75.5,73.3,30.20,SSW,202,0.5,1.1,93,0.00,CLR,,0.00,WeatherDisplay:10.37,2013-08-23 03:08:00,
2013-08-22 23:13:00,75.3,73.5,30.19,West,271,0.4,1.1,94,0.00,CLR,,0.00,WeatherDisplay:10.37,2013-08-23 03:13:00,
2013-08-22 23:18:00,75.2,73.4,30.19,West,271,0.0,0.0,94,0.00,CLR,,0.00,WeatherDisplay:10.37,2013-08-23 03:18:00,
2013-08-22 23:23:00,75.0,73.2,30.19,West,262,0.7,2.3,94,0.00,CLR,,0.00,WeatherDisplay:10.37,2013-08-23 03:23:00,
2013-08-22 23:28:00,74.9,73.1,30.19,WSW,253,0.2,1.1,94,0.00,CLR,,0.00,WeatherDisplay:10.37,2013-08-23 03:28:00,
2013-08-22 23:33:00,74.8,73.0,30.19,WSW,247,0.2,1.1,94,0.00,CLR,,0.00,WeatherDisplay:10.37,2013-08-23 03:33:00,
2013-08-22 23:38:00,74.7,72.9,30.19,West,280,0.5,2.3,94,0.00,CLR,,0.00,WeatherDisplay:10.37,2013-08-23 03:38:00,
2013-08-22 23:43:00,74.6,73.1,30.18,West,272,0.0,0.0,95,0.00,CLR,,0.00,WeatherDisplay:10.37,2013-08-23 03:43:00,
2013-08-22 23:48:00,74.4,72.6,30.18,WSW,238,1.1,2.3,94,0.00,CLR,,0.00,WeatherDisplay:10.37,2013-08-23 03:48:00,
2013-08-22 23:53:00,74.2,72.4,30.18,WSW,237,0.0,0.0,94,0.00,CLR,,0.00,WeatherDisplay:10.37,2013-08-23 03:53:00,
2013-08-22 23:58:00,74.1,72.3,30.18,WNW,298,0.6,2.0,94,0.00,CLR,,0.00,WeatherDisplay:10.37,2013-08-23 03:58:00,